Starlink 31788

operational
NORAD ID: 60055 Int'l Des: 2024-112 Owner: SPXS Country: US Constellation: starlink
LEOCIRCULAR

Über Starlink 31788

Beschreibung wird geladen...

Live-Position

3D-Globus wird geladen...

Nächste Überflüge

Höhenverlauf

Altitude vs Time

uPlot chart will show altitude changes over time

Zweizeiliger Elementsatz

1 60055U 24112T 25306.25375043 .00000255 00000-0 20758-4 0 9999
2 60055 53.1608 310.0596 0001344 90.1585 269.9570 15.30189372 79086
Epoch: 2. Nov. 2025 • Age: 37 hours

Aktueller Status

Höhe 486.6 km
Geschwindigkeit 7.62 km/s
Subsatellitenpunkt -33.79°S, 63.2°W
Startdatum 8. Juni 2024
Alter 1.4 years
Typ internet

Technische Details

Klassifizierung Payload
Masse 730.00 kg
Trockenmasse 700.00 kg
Gesamtmasse 730.00 kg
Länge 0.30 m
Durchmesser 4.10 m
Spannweite 29.00 m
Form Box + pan
Hersteller SPXS
Bus-Typ Starlink V2M
Phasenstatus In Orbit
Besitzer/Staat SPXS/US

Große Konstellationen

Loading constellations...